Volver al catálogo

STARLINK-35091

ActivoComunicacionesVLEO
NORAD 65640·PAYLOAD·🇺🇸 United States

Lanzado Sep 18, 2025 desde Cape Canaveral Space Force Station

Loading…

Próximos Pases (próximas 24 horas)

TLE

ActualizadoSource: CelesTrak SupGP

Época: Sep 14, 2026, 21:31 UTC

1 65640C 25210U   26257.89701389 -.00009695  00000+0 -28650-3 0  2579
2 65640  53.1573 144.1443 0001288  99.8442  28.3326 15.34389398    11

Sigue STARLINK-35091 en tiempo real con AllMySat

Download on the App Store